BAW352 EGLL-LFML

Flight info

Callsign BAW352
Flight time N/A
Altitude 35000
Route MODMI M185 MID L612 BOGNA UL612 VEULE DCT KOTAP DCT KETEX DCT KOTIS DCT KUKOR DCT UTUVA DCT LERGA
Aircraft A21N/M-SDE2E3FGHIRWXY/LB1

Departure

Time 2026-04-30 14:43
Airport London Heathrow Airport (EGLL)

Arrival

Time N/A
Airport Marseille Provence Airport (LFML)
Time Latitude Longitude Altitude Speed Heading
2026-04-30 14:18 51.47180 -0.48217 89 ft 0 kts 90°
2026-04-30 14:31 51.47180 -0.48231 89 ft 2 kts 90°
2026-04-30 14:31 51.47180 -0.48279 89 ft 2 kts 90°
2026-04-30 14:31 51.47180 -0.48303 89 ft 2 kts 90°
2026-04-30 14:32 51.47188 -0.48349 88 ft 2 kts 141°
2026-04-30 14:32 51.47202 -0.48360 88 ft 2 kts 172°
2026-04-30 14:32 51.47214 -0.48359 88 ft 0 kts 186°
2026-04-30 14:33 51.47216 -0.48359 88 ft 0 kts 185°
2026-04-30 14:35 51.47203 -0.48359 88 ft 2 kts 181°
2026-04-30 14:35 51.47173 -0.48360 88 ft 4 kts 180°
2026-04-30 14:35 51.47141 -0.48360 88 ft 5 kts 179°
2026-04-30 14:36 51.47094 -0.48358 88 ft 8 kts 179°
2026-04-30 14:36 51.47024 -0.48353 88 ft 11 kts 177°
2026-04-30 14:36 51.46937 -0.48356 88 ft 13 kts 180°
2026-04-30 14:36 51.46835 -0.48352 87 ft 15 kts 179°
2026-04-30 14:37 51.46746 -0.48393 87 ft 12 kts 239°
2026-04-30 14:37 51.46703 -0.48468 87 ft 8 kts 194°
2026-04-30 14:37 51.46638 -0.48468 87 ft 9 kts 179°
2026-04-30 14:37 51.46608 -0.48468 87 ft 0 kts 180°
2026-04-30 14:38 51.46602 -0.48468 86 ft 3 kts 180°
2026-04-30 14:38 51.46598 -0.48468 86 ft 0 kts 180°
2026-04-30 14:40 51.46569 -0.48468 86 ft 13 kts 180°
2026-04-30 14:40 51.46478 -0.48392 86 ft 16 kts 99°
2026-04-30 14:41 51.46478 -0.48225 86 ft 6 kts 90°
2026-04-30 14:41 51.46478 -0.48222 86 ft 0 kts 90°
2026-04-30 14:43 51.46479 -0.48063 86 ft 49 kts 90°
2026-04-30 14:43 51.46484 -0.47092 86 ft 122 kts 91°
2026-04-30 14:43 51.46496 -0.45413 191 ft 169 kts 89°
2026-04-30 14:43 51.46514 -0.43575 968 ft 167 kts 89°
2026-04-30 14:44 51.46497 -0.41789 1908 ft 160 kts 102°
2026-04-30 14:44 51.46032 -0.40154 2499 ft 170 kts 126°
2026-04-30 14:44 51.45227 -0.38666 2980 ft 187 kts 130°
2026-04-30 14:44 51.44164 -0.37307 3363 ft 213 kts 153°
2026-04-30 14:45 51.42663 -0.36599 3860 ft 235 kts 162°
2026-04-30 14:45 51.41027 -0.35921 4527 ft 248 kts 164°
2026-04-30 14:45 51.39314 -0.35861 5263 ft 260 kts 188°
2026-04-30 14:45 51.37599 -0.36981 5975 ft 271 kts 204°
2026-04-30 14:46 51.35962 -0.38420 6909 ft 272 kts 205°
2026-04-30 14:46 51.34314 -0.39853 7753 ft 274 kts 204°
2026-04-30 14:46 51.32619 -0.41258 8551 ft 277 kts 203°
2026-04-30 14:46 51.31476 -0.42179 9071 ft 280 kts 202°
2026-04-30 14:47 51.29158 -0.44017 10101 ft 284 kts 202°
2026-04-30 14:47 51.27370 -0.45422 10777 ft 291 kts 202°
2026-04-30 14:47 51.25526 -0.46885 11165 ft 308 kts 202°
2026-04-30 14:47 51.23564 -0.48447 11535 ft 324 kts 203°
2026-04-30 14:48 51.21516 -0.50059 12148 ft 331 kts 202°
2026-04-30 14:48 51.19434 -0.51680 12894 ft 334 kts 202°
2026-04-30 14:48 51.17342 -0.53299 13604 ft 338 kts 202°
2026-04-30 14:48 51.15247 -0.54918 14302 ft 341 kts 202°
2026-04-30 14:49 51.13100 -0.56577 15010 ft 344 kts 202°
2026-04-30 14:49 51.10969 -0.58224 15726 ft 346 kts 202°
2026-04-30 14:49 51.08794 -0.59896 16419 ft 348 kts 201°
2026-04-30 14:49 51.06500 -0.60965 17037 ft 345 kts 182°
2026-04-30 14:50 51.02028 -0.58996 18310 ft 342 kts 147°
2026-04-30 14:50 51.00067 -0.56874 18958 ft 344 kts 146°
2026-04-30 14:51 50.96075 -0.52592 20235 ft 348 kts 146°
2026-04-30 14:51 50.94071 -0.50455 20831 ft 351 kts 146°
2026-04-30 14:51 50.89994 -0.46116 21983 ft 356 kts 146°
2026-04-30 14:52 50.87912 -0.43904 22572 ft 358 kts 146°
2026-04-30 14:52 50.83781 -0.39526 23670 ft 362 kts 145°
2026-04-30 14:52 50.81659 -0.37277 24168 ft 366 kts 145°
2026-04-30 14:53 50.77425 -0.32799 25130 ft 371 kts 145°
2026-04-30 14:53 50.75270 -0.30525 25597 ft 374 kts 146°
2026-04-30 14:54 50.70937 -0.25965 26491 ft 378 kts 145°
2026-04-30 14:54 50.66552 -0.21361 27314 ft 383 kts 146°
2026-04-30 14:55 50.62088 -0.16689 28074 ft 388 kts 145°
2026-04-30 14:55 50.59839 -0.14334 28443 ft 390 kts 146°
2026-04-30 14:55 50.55314 -0.09608 29106 ft 395 kts 146°
2026-04-30 14:56 50.50708 -0.04805 29756 ft 400 kts 146°
2026-04-30 14:56 50.46073 0.00012 30373 ft 404 kts 146°
2026-04-30 14:57 50.43705 0.02469 30669 ft 406 kts 146°
2026-04-30 14:57 50.38984 0.07358 31162 ft 410 kts 145°
2026-04-30 14:58 50.34210 0.12288 31777 ft 411 kts 146°
2026-04-30 14:58 50.31846 0.14724 32113 ft 410 kts 146°
2026-04-30 14:58 50.27068 0.19645 32734 ft 410 kts 146°
2026-04-30 14:59 50.22355 0.24485 33325 ft 408 kts 146°
2026-04-30 15:00 50.15231 0.31797 33997 ft 410 kts 145°
2026-04-30 15:00 50.10464 0.36690 34364 ft 413 kts 145°
2026-04-30 15:01 50.05688 0.41585 34701 ft 415 kts 146°
2026-04-30 15:01 49.98454 0.48974 35076 ft 418 kts 146°
2026-04-30 15:02 49.93567 0.53953 35124 ft 421 kts 146°
2026-04-30 15:03 49.81479 0.66627 35147 ft 421 kts 144°
2026-04-30 15:04 49.69570 0.79757 35147 ft 422 kts 144°
2026-04-30 15:06 49.57645 0.92851 35145 ft 423 kts 144°
2026-04-30 15:07 49.48076 1.03303 35147 ft 423 kts 144°
2026-04-30 15:08 49.38515 1.13696 35149 ft 424 kts 144°
2026-04-30 15:09 49.26497 1.26691 35143 ft 424 kts 144°
2026-04-30 15:10 49.16890 1.37018 35142 ft 424 kts 144°
2026-04-30 15:11 49.02392 1.52513 35142 ft 431 kts 143°
2026-04-30 15:12 48.94922 1.60455 35142 ft 442 kts 144°
2026-04-30 15:13 48.89865 1.65811 35141 ft 442 kts 144°
2026-04-30 15:14 48.72164 1.84465 35139 ft 444 kts 144°
2026-04-30 15:16 48.58635 1.95524 35137 ft 450 kts 158°
2026-04-30 15:17 48.46908 2.02177 35130 ft 452 kts 158°
2026-04-30 15:19 48.23401 2.15586 35116 ft 454 kts 158°